[[{"header":{"parameterUnit":"m.s-1","parameterCategory":1,"la1":30.2991,"la2":30.254,"lo1":-89.0895,"lo2":-89.0444,"dy":0.0017,"dx":0.0017,"nx":28,"ny":28,"refTime":"2025-08-07T03:00:00:Z","depth":0,"parameterNumber":2,"parameterNumberName":"U-component_of_WINDS"},"data":[0,0,0,0,0,0,0,0,0,0,0,0,0,0,0,0,0,0,0,0,0,0,0,0,0,0,0,0,0,0,0,0,0,0,0,0,0,0,0,0,0,0,0,0,0,0,0,0,0,0,0,0,0,0,0,0,0,0,0.0563,0.0563,0,0.0635,0.0635,0.0636,0.0682,0.0682,0.0682,0.0682,0.0753,0.0754,0.0756,0,0,0,0,0,0,0,0,0,0,0,0,0,0.046,0.0462,0.0562,0.0563,0.0564,0.0635,0.0636,0.0636,0.0682,0.0682,0.0682,0.0683,0.0752,0.0754,0.0756,0,0,0,0,0,0,0,0,0,0,0,0,0,0.0516,0.0462,0.0562,0.0595,0.0599,0.0634,0.0636,0.0637,0.0682,0.0682,0.0682,0.0683,0.0752,0.0754,0.0756,0.0763,0,0,0.0764,0.0765,0,0,0,0,0,0,0,0,0.0512,0.0519,0.059,0.0593,0.0597,0.065,0.0625,0.0679,0.0681,0.065,0.0682,0.0683,0.0718,0.0723,0.0736,0.0767,0.077,0.0764,0.0766,0.0767,0.0767,0,0,0,0,0,0,0,0.0509,0.0516,0.0591,0.0591,0.0595,0.0605,0.0614,0.0636,0.0681,0.0653,0.0656,0.0664,0.072,0.0733,0.0738,0.0771,0.0764,0.0766,0.0768,0.0769,0.081,0.0809,0,0,0,0,0,0,0.05,0.0513,0.0589,0.0593,0.0555,0.0607,0.0616,0.0632,0.0681,0.0688,0.0664,0.0666,0.0729,0.0735,0.074,0.0751,0.0767,0.0769,0.077,0.081,0.081,0.0809,0,0,0,0,0,0,0.0498,0.0506,0.0586,0.0554,0.0565,0.0608,0.0626,0.0634,0.0647,0.0689,0.0697,0.0669,0.0729,0.0737,0.0757,0.0754,0.077,0.0772,0.081,0.081,0.0809,0.0772,0,0,0,0,0,0,0.0494,0.0505,0.0509,0.0554,0.0567,0.0602,0.0626,0.0635,0.0651,0.0655,0.0696,0.0703,0.073,0.0753,0.076,0.0757,0.0774,0.0811,0.081,0.081,0.0774,0.077,0.0767,0,0,0,0,0,0.0491,0.0495,0.0509,0.0518,0.0573,0.0602,0.0609,0.0641,0.0651,0.0655,0.0682,0.0702,0.0753,0.0755,0.0763,0.0761,0.0811,0.081,0.081,0.0775,0.0771,0.0767,0,0,0,0,0,0,0.0448,0.0502,0.0518,0.0537,0.0565,0.061,0.0616,0.0636,0.066,0.0663,0.07,0.0709,0.0725,0.0745,0.0746,0.077,0.0785,0.0785,0.0756,0.0752,0.0749,0.0743,0.0776,0,0,0,0,0,0.0441,0.0462,0.0507,0.052,0.0533,0.0572,0.0586,0.0608,0.0638,0.0649,0.0678,0.0705,0.0727,0.0741,0.0764,0.0777,0.0786,0.078,0.0776,0.0774,0.0773,0.078,0.0777,0.0806,0.0806,0.0806,0,0,0.0426,0.0458,0.0469,0.0512,0.0536,0.0556,0.0581,0.0601,0.0615,0.0652,0.0673,0.0695,0.0728,0.0744,0.0753,0.0761,0.0767,0.0772,0.077,0.0771,0.0779,0.0776,0.0774,0.0806,0.0806,0.0806,0,0,0.041,0.0437,0.045,0.0473,0.051,0.0536,0.0539,0.0581,0.0597,0.0619,0.0646,0.0663,0.0701,0.0723,0.0739,0.073,0.0749,0.0736,0.0719,0.0725,0.0723,0.0721,0.0716,0.0714,0.0736,0.0736,0.0736,0,0.0387,0.0418,0.0454,0.0472,0.0489,0.0524,0.0537,0.0558,0.0599,0.061,0.0619,0.0667,0.0691,0.0713,0.071,0.0723,0.0726,0.0731,0.072,0.0719,0.0718,0.0713,0.0712,0.0734,0.0734,0.0734,0.0734,0,0.0387,0.0409,0.0415,0.0455,0.0473,0.0488,0.0524,0.0538,0.0559,0.0583,0.0604,0.0635,0.0664,0.0671,0.0691,0.0694,0.0698,0.0714,0.0729,0.0712,0.0709,0.0708,0.0731,0.0732,0.0732,0.0733,0,0,0.0345,0.0405,0.0406,0.0424,0.0467,0.0484,0.05,0.0529,0.054,0.0567,0.058,0.0611,0.0626,0.0644,0.0666,0.0672,0.0661,0.0686,0.0688,0.0679,0.0665,0.0652,0.065,0.0674,0.0674,0.0674,0.0662,0,0.0334,0.0366,0.0398,0.0418,0.0437,0.0471,0.0484,0.0511,0.0534,0.0553,0.0578,0.0598,0.0616,0.0627,0.0635,0.0661,0.0658,0.0662,0.0685,0.0686,0.0675,0.0649,0.0636,0.0623,0.0661,0.0661,0.0661,0,0.0324,0.0351,0.0373,0.0413,0.0422,0.0434,0.0463,0.0482,0.0512,0.0528,0.0548,0.0572,0.0589,0.0603,0.0626,0.0628,0.064,0.0654,0.0654,0.0656,0.0671,0.0649,0.0619,0.0617,0.0659,0.0659,0.0659,0,0.029,0.0331,0.0349,0.0364,0.0412,0.0419,0.0439,0.047,0.0485,0.0511,0.052,0.0547,0.0561,0.058,0.0609,0.0618,0.0629,0.0646,0.0641,0.064,0.0641,0.064,0.0611,0.065,0.065,0.065,0.065,0,0.0273,0.0284,0.0334,0.0345,0.0359,0.0395,0.0407,0.043,0.0457,0.0472,0.0503,0.0516,0.0556,0.0573,0.0596,0.061,0.0617,0.0629,0.0635,0.0626,0.0624,0.0632,0.0633,0.065,0.065,0.065,0.065,0,0.0235,0.027,0.0291,0.0335,0.0346,0.0354,0.0391,0.0402,0.0427,0.0445,0.0452,0.049,0.0512,0.0544,0.0575,0.0591,0.0601,0.0611,0.0591,0.0594,0.0587,0.0586,0.0561,0.0559,0.0601,0.06,0.06,0,0.0222,0.0232,0.0276,0.0289,0.0308,0.0329,0.0345,0.038,0.0395,0.0431,0.0437,0.0462,0.0483,0.0516,0.0546,0.0569,0.0579,0.0569,0.0583,0.0573,0.0577,0.0576,0.0576,0.0565,0.0565,0.0564,0.0564,0,0.0193,0.0209,0.0232,0.026,0.0278,0.0302,0.0327,0.0335,0.0376,0.0391,0.0415,0.0431,0.0463,0.0486,0.0514,0.0533,0.0554,0.0559,0.0559,0.0549,0.0536,0.0541,0.058,0.0559,0.056,0.056,0.056,0.056,0.0166,0.0176,0.0209,0.0233,0.0256,0.0278,0.029,0.0317,0.0337,0.0367,0.0387,0.0408,0.0438,0.0477,0.0495,0.0512,0.0521,0.0521,0.052,0.0519,0.0515,0.0535,0.0517,0.0517,0.0517,0.0517,0.0517,0,0.0138,0.0161,0.0182,0.0217,0.0235,0.0255,0.0283,0.0297,0.0316,0.0342,0.0363,0.0388,0.0411,0.0442,0.0467,0.0474,0.0484,0.0479,0.0478,0.0481,0.0507,0.0504,0.047,0.047,0.047,0.047,0.047,0.047,0.0125,0.0142,0.0163,0.0191,0.0214,0.0236,0.025,0.0271,0.0292,0.0319,0.0339,0.036,0.0387,0.0414,0.0435,0.0443,0.045,0.0441,0.0453,0.0475,0.048,0.0484,0.0481,0.0443,0.0443,0.0426,0.0426,0.0425]},{"header":{"parameterUnit":"m.s-1","parameterCategory":1,"la1":30.2991,"la2":30.254,"lo1":-89.0895,"lo2":-89.0444,"dy":0.0017,"dx":0.0017,"nx":28,"ny":28,"refTime":"2025-08-07T03:00:00:Z","depth":0,"parameterNumber":3,"parameterNumberName":"V-component_of_WINDS"},"data":[0,0,0,0,0,0,0,0,0,0,0,0,0,0,0,0,0,0,0,0,0,0,0,0,0,0,0,0,0,0,0,0,0,0,0,0,0,0,0,0,0,0,0,0,0,0,0,0,0,0,0,0,0,0,0,0,0,0,1.2997,1.2998,0,1.3154,1.3155,1.3157,1.3236,1.3236,1.3236,1.3236,1.3397,1.3402,1.3406,0,0,0,0,0,0,0,0,0,0,0,0,0,1.2764,1.2768,1.2997,1.2999,1.3001,1.3153,1.3155,1.3158,1.3236,1.3236,1.3236,1.3236,1.3396,1.3401,1.3406,0,0,0,0,0,0,0,0,0,0,0,0,0,1.2887,1.2769,1.2996,1.3058,1.3065,1.3153,1.3156,1.3158,1.3236,1.3236,1.3236,1.3236,1.3394,1.3401,1.3407,1.3446,0,0,1.3426,1.3429,0,0,0,0,0,0,0,0,1.288,1.2896,1.3047,1.3054,1.3062,1.3175,1.3133,1.3255,1.3236,1.3171,1.3236,1.3236,1.3323,1.3336,1.3365,1.3453,1.346,1.3427,1.3431,1.3434,1.3435,0,0,0,0,0,0,0,1.2872,1.289,1.3059,1.3049,1.3058,1.3078,1.3095,1.3156,1.3245,1.3177,1.3183,1.32,1.3328,1.3359,1.3369,1.3462,1.3427,1.3433,1.3436,1.3439,1.3588,1.3588,0,0,0,0,0,0,1.2853,1.2882,1.3054,1.3064,1.2969,1.3082,1.3101,1.3139,1.3245,1.3261,1.32,1.3203,1.3348,1.3362,1.3375,1.3427,1.3434,1.344,1.3443,1.3588,1.3588,1.3588,0,0,0,0,0,0,1.2848,1.2868,1.3048,1.2974,1.2999,1.3086,1.3127,1.3142,1.3173,1.3262,1.3279,1.3216,1.3348,1.3366,1.3427,1.3434,1.3443,1.3448,1.3588,1.3588,1.3588,1.353,0,0,0,0,0,0,1.2841,1.2865,1.2881,1.2974,1.3002,1.3097,1.3128,1.3145,1.3184,1.319,1.3281,1.3296,1.335,1.3417,1.3433,1.3443,1.3453,1.3588,1.3588,1.3588,1.3532,1.3528,1.3525,0,0,0,0,0,1.2832,1.2859,1.2882,1.2902,1.3024,1.3097,1.3113,1.3174,1.3184,1.3201,1.3257,1.3293,1.343,1.3423,1.3442,1.3453,1.3588,1.3588,1.3588,1.3534,1.3529,1.3525,0,0,0,0,0,0,1.2766,1.2873,1.2899,1.2957,1.3017,1.311,1.3133,1.3167,1.3226,1.3229,1.3302,1.3322,1.3376,1.3421,1.3411,1.3495,1.3512,1.3516,1.3464,1.3461,1.3457,1.3446,1.3459,0,0,0,0,0,1.2758,1.2808,1.2899,1.2941,1.297,1.3045,1.308,1.3121,1.3187,1.3213,1.3274,1.3336,1.3393,1.3429,1.3487,1.3538,1.3559,1.3555,1.3552,1.3549,1.3552,1.3581,1.358,1.3589,1.3589,1.3589,0,0,1.2742,1.2806,1.2834,1.2929,1.2981,1.3031,1.3067,1.3119,1.3156,1.3221,1.3282,1.3328,1.3403,1.3458,1.3486,1.3497,1.3553,1.3549,1.3546,1.3551,1.3581,1.358,1.3579,1.359,1.359,1.3589,0,0,1.2739,1.2793,1.2833,1.2884,1.2961,1.3011,1.302,1.3108,1.3141,1.3203,1.3252,1.3298,1.3394,1.3445,1.3483,1.3496,1.3531,1.3513,1.3496,1.3523,1.3522,1.3522,1.3526,1.3526,1.3515,1.3515,1.3515,0,1.271,1.2787,1.285,1.2899,1.2938,1.2998,1.3039,1.3085,1.3177,1.3203,1.3214,1.3335,1.3389,1.3457,1.346,1.3489,1.3502,1.3503,1.3517,1.3518,1.3518,1.3523,1.3524,1.3512,1.3512,1.3513,1.3513,0,1.2747,1.2799,1.2823,1.2909,1.2952,1.2996,1.3065,1.31,1.3137,1.3185,1.3247,1.3314,1.3385,1.3404,1.3441,1.3476,1.3481,1.3503,1.3522,1.3514,1.3519,1.3521,1.3508,1.3509,1.351,1.3511,0,0,1.2709,1.2827,1.2835,1.2874,1.2962,1.3004,1.305,1.3119,1.3147,1.3208,1.3248,1.3328,1.3348,1.3392,1.3435,1.3459,1.3463,1.3479,1.3481,1.3473,1.3505,1.3488,1.3489,1.3486,1.3487,1.3487,1.3499,0,1.2718,1.2804,1.286,1.2924,1.2973,1.3028,1.3068,1.3126,1.3172,1.322,1.3271,1.3326,1.3349,1.3376,1.3402,1.3457,1.3471,1.3457,1.3524,1.3526,1.3504,1.3492,1.3474,1.3482,1.3501,1.3502,1.3502,0,1.2741,1.2799,1.2866,1.2947,1.297,1.3005,1.3072,1.3117,1.3183,1.3215,1.3261,1.3304,1.3355,1.3368,1.3439,1.3428,1.3458,1.3489,1.3491,1.35,1.3514,1.35,1.3486,1.3486,1.3506,1.3506,1.3506,0,1.2705,1.28,1.2853,1.2884,1.298,1.3003,1.3044,1.3111,1.3148,1.3206,1.323,1.3293,1.3328,1.3376,1.3434,1.3439,1.3498,1.3517,1.3525,1.3524,1.3536,1.3534,1.3526,1.3555,1.3555,1.3555,1.3555,0,1.271,1.2749,1.2838,1.287,1.2915,1.2979,1.3022,1.3067,1.3125,1.3167,1.3219,1.3257,1.3332,1.3379,1.3425,1.3475,1.3491,1.3517,1.3529,1.3513,1.3509,1.3534,1.3535,1.3555,1.3555,1.3555,1.3555,0,1.2679,1.274,1.28,1.2885,1.2907,1.2936,1.3009,1.3042,1.309,1.3142,1.3157,1.3232,1.329,1.3353,1.3432,1.3463,1.351,1.3527,1.3488,1.3494,1.3499,1.3497,1.3506,1.351,1.3536,1.3536,1.3536,0,1.2678,1.2709,1.2796,1.2828,1.2867,1.2917,1.2954,1.3018,1.3055,1.3131,1.3154,1.3216,1.3268,1.3357,1.3419,1.3479,1.3498,1.3496,1.3507,1.3489,1.3497,1.3494,1.3497,1.3493,1.3493,1.3492,1.3492,0,1.267,1.2698,1.275,1.2811,1.2854,1.2906,1.296,1.2982,1.3056,1.3095,1.3154,1.3194,1.3273,1.3333,1.34,1.3443,1.3479,1.3488,1.3493,1.3477,1.3452,1.3465,1.3479,1.3487,1.3488,1.3488,1.3488,1.3489,1.2654,1.2684,1.2749,1.2804,1.2851,1.2899,1.2934,1.2985,1.3035,1.3104,1.3138,1.3197,1.326,1.3354,1.3395,1.3441,1.3453,1.346,1.3462,1.3463,1.3458,1.3444,1.3454,1.3454,1.3454,1.3454,1.3454,0,1.2649,1.2692,1.2743,1.2815,1.2858,1.2888,1.2948,1.2982,1.3033,1.3089,1.3138,1.3205,1.3262,1.3327,1.3389,1.3413,1.3431,1.3427,1.3426,1.3435,1.3445,1.3434,1.3411,1.3411,1.3411,1.3411,1.3411,1.3411,1.2651,1.2702,1.2737,1.2811,1.2855,1.2912,1.2943,1.2988,1.3033,1.3104,1.3152,1.3193,1.3253,1.3318,1.3372,1.339,1.341,1.34,1.3422,1.3431,1.3434,1.3438,1.3428,1.3404,1.3404,1.3409,1.3409,1.3409]}]]